Clermont County, Batavia, OH

5:46 PM EST on December 07, 2019 (GMT -0500)
Clermont County, Batavia

Weather History for KI69 - October, 2019

Change the Weather History Date:

Friday, October 11, 2019

  Actual Average (KLUK) Record (KLUK)
Temperature  
Mean Temperature 62 °F -  
Max Temperature 76 °F 66 °F 88 °F (2010)
Min Temperature 48 °F 46 °F 25 °F (1964)
Degree Days  
Heating Degree Days 2    
Growing Degree Days 12 (Base 50)    
Moisture  
Dew Point 58 °F    
Average Humidity 74    
Maximum Humidity 95    
Minimum Humidity 57    
Precipitation  
Precipitation 0.02 in - - ()
Sea Level Pressure  
Sea Level Pressure 30.03 in    
Wind  
Wind Speed 4 mph (South)    
Max Wind Speed 17 mph    
Max Gust Speed 26 mph    
Visibility 10 miles    
Events Rain    
Averages and records for this station are not official NWS values.
T = Trace of Precipitation, MM = Missing Value Source: NWS Daily Summary

Daily Weather History Graph

Daily Weather History Graph

Search for Another Location

Airport or City:

Astronomy

Oct. 11, 2019 Rise Set
Actual Time 7:42 AM EDT 7:04 PM EDT
Civil Twilight 7:15 AM EDT 7:31 PM EDT
Nautical Twilight 6:44 AM EDT 8:02 PM EDT
Astronomical Twilight 6:13 AM EDT 8:32 PM EDT
Moon 6:31 PM EDT (10/11) 5:23 AM EDT (10/11)
Length of Visible Light 12h 15m
Length of Day
11h 22m
Waxing Gibbous, 96% of the Moon is Illuminated
Oct 11
Waxing Gibbous
Oct 13
Full
Oct 21
Last Quarter
Oct 27
New
Nov 4
First Quarter

Hourly Weather History & Observations

Time (EDT) Temp. Dew Point Humidity Pressure Visibility Wind Dir Wind Speed Gust Speed Precip Events Conditions
12:15 AM 64.8 °F 59.0 °F 82% 30.09 in 10.0 mi SE 3.5 mph - N/A   Clear
12:35 AM 64.8 °F 59.0 °F 82% 30.09 in 10.0 mi SE 4.6 mph - N/A   Clear
12:55 AM 64.6 °F 59.0 °F 82% 30.09 in 10.0 mi Calm Calm - N/A   Scattered Clouds
1:18 AM 64.6 °F 59.0 °F 82% 30.09 in 10.0 mi Calm Calm - N/A   Mostly Cloudy
1:36 AM 64.4 °F 58.1 °F 80% 30.09 in 10.0 mi Calm Calm - N/A   Scattered Clouds
1:55 AM 64.4 °F 58.1 °F 80% 30.08 in 10.0 mi SE 3.5 mph - N/A   Mostly Cloudy
2:15 AM 64.4 °F 57.9 °F 79% 30.08 in 10.0 mi Calm Calm - N/A   Overcast
2:35 AM 64.0 °F 58.5 °F 82% 30.07 in 10.0 mi SE 3.5 mph - N/A   Overcast
2:58 AM 63.7 °F 59.0 °F 85% 30.07 in 10.0 mi ESE 3.5 mph - N/A   Overcast
3:16 AM 63.3 °F 58.8 °F 85% 30.06 in 10.0 mi Calm Calm - N/A   Overcast
3:35 AM 62.8 °F 59.0 °F 87% 30.06 in 10.0 mi Calm Calm - N/A   Overcast
3:55 AM 62.8 °F 58.5 °F 86% 30.06 in 10.0 mi ESE 3.5 mph - N/A   Overcast
4:19 AM 62.4 °F 58.1 °F 86% 30.05 in 10.0 mi ESE 3.5 mph - N/A   Mostly Cloudy
4:38 AM 62.6 °F 58.1 °F 85% 30.06 in 10.0 mi Calm Calm - N/A   Mostly Cloudy
4:56 AM 62.6 °F 58.3 °F 86% 30.06 in 10.0 mi SE 3.5 mph - N/A   Scattered Clouds
5:15 AM 62.2 °F 57.9 °F 86% 30.06 in 10.0 mi Calm Calm - N/A   Clear
5:35 AM 62.1 °F 57.6 °F 85% 30.06 in 10.0 mi Calm Calm - N/A   Scattered Clouds
5:59 AM 61.9 °F 57.2 °F 85% 30.06 in 10.0 mi SSE 3.5 mph - N/A   Mostly Cloudy
6:17 AM 61.7 °F 57.2 °F 85% 30.06 in 10.0 mi SE 3.5 mph - N/A   Mostly Cloudy
6:36 AM 61.7 °F 57.2 °F 85% 30.06 in 10.0 mi SSE 3.5 mph - N/A   Mostly Cloudy
6:55 AM 61.7 °F 57.2 °F 85% 30.06 in 10.0 mi SSE 3.5 mph - N/A   Mostly Cloudy
7:15 AM 61.9 °F 57.2 °F 85% 30.06 in 10.0 mi Calm Calm - N/A   Overcast
7:39 AM 61.9 °F 57.2 °F 85% 30.06 in 10.0 mi SE 3.5 mph - N/A   Overcast
7:58 AM 61.7 °F 57.2 °F 85% 30.06 in 10.0 mi SE 3.5 mph - N/A   Mostly Cloudy
8:16 AM 61.9 °F 57.2 °F 85% 30.07 in 10.0 mi SE 3.5 mph - N/A   Scattered Clouds
8:35 AM 63.3 °F 58.1 °F 83% 30.07 in 10.0 mi Calm Calm - N/A   Mostly Cloudy
8:55 AM 65.1 °F 58.5 °F 79% 30.08 in 10.0 mi Calm Calm - N/A   Overcast
9:19 AM 66.2 °F 58.3 °F 76% 30.08 in 10.0 mi Calm Calm - N/A   Overcast
9:38 AM 67.3 °F 57.9 °F 72% 30.08 in 10.0 mi South 5.8 mph - N/A   Overcast
9:56 AM 68.2 °F 57.7 °F 69% 30.08 in 10.0 mi South 4.6 mph - N/A   Mostly Cloudy
10:15 AM 69.4 °F 57.6 °F 66% 30.08 in 10.0 mi South 4.6 mph - N/A   Scattered Clouds
10:35 AM 69.8 °F 57.7 °F 65% 30.08 in 10.0 mi South 8.1 mph - N/A   Mostly Cloudy
10:59 AM 71.1 °F 57.7 °F 63% 30.07 in 10.0 mi SSW 10.4 mph 16.1 mph N/A   Mostly Cloudy
11:17 AM 69.4 °F 57.6 °F 66% 30.07 in 10.0 mi South 6.9 mph - N/A   Overcast
11:36 AM 69.1 °F 58.3 °F 68% 30.07 in 10.0 mi South 3.5 mph - N/A   Overcast
11:55 AM 69.3 °F 57.9 °F 67% 30.07 in 10.0 mi South 4.6 mph - N/A   Mostly Cloudy
12:15 PM 69.3 °F 58.5 °F 68% 30.06 in 10.0 mi South 5.8 mph - N/A   Mostly Cloudy
12:39 PM 70.9 °F 59.0 °F 66% 30.06 in 10.0 mi SSW 4.6 mph - N/A   Overcast
12:57 PM 72.5 °F 59.2 °F 63% 30.05 in 10.0 mi SSW 5.8 mph - N/A   Scattered Clouds
1:15 PM 73.4 °F 60.1 °F 63% 30.04 in 10.0 mi SSW 5.8 mph - N/A   Clear
1:35 PM 74.3 °F 60.3 °F 61% 30.04 in 10.0 mi SW 5.8 mph - N/A   Clear
1:55 PM 76.1 °F 60.8 °F 59% 30.03 in 10.0 mi SSW 10.4 mph 17.3 mph N/A Rain Light Rain
2:19 PM 75.0 °F 59.7 °F 59% 30.03 in 10.0 mi SW 11.5 mph 19.6 mph N/A   Mostly Cloudy
2:37 PM 75.4 °F 59.7 °F 58% 30.02 in 10.0 mi SW 10.4 mph 18.4 mph N/A   Mostly Cloudy
2:55 PM 75.2 °F 59.7 °F 58% 30.01 in 10.0 mi WSW 13.8 mph - N/A   Mostly Cloudy
3:15 PM 74.7 °F 59.7 °F 60% 30.01 in 10.0 mi WSW 11.5 mph 19.6 mph N/A   Overcast
3:35 PM 74.1 °F 59.0 °F 59% 30.01 in 10.0 mi SW 9.2 mph - N/A   Overcast
3:59 PM 73.0 °F 59.0 °F 61% 29.99 in 10.0 mi South 5.8 mph - N/A   Overcast
4:17 PM 73.2 °F 59.7 °F 63% 29.99 in 10.0 mi South 5.8 mph - N/A   Mostly Cloudy
4:35 PM 74.3 °F 59.4 °F 60% 29.98 in 10.0 mi South 4.6 mph - N/A   Mostly Cloudy
4:55 PM 73.6 °F 59.2 °F 61% 29.98 in 10.0 mi South 3.5 mph - N/A   Mostly Cloudy
5:15 PM 74.5 °F 58.5 °F 57% 29.97 in 10.0 mi SSW 11.5 mph - N/A   Overcast
5:39 PM 73.8 °F 58.6 °F 59% 29.97 in 10.0 mi South 5.8 mph - N/A   Overcast
5:57 PM 73.6 °F 58.6 °F 59% 29.96 in 10.0 mi South 3.5 mph - N/A   Overcast
6:15 PM 72.9 °F 59.0 °F 62% 29.96 in 10.0 mi SSE 3.5 mph - N/A   Overcast
6:35 PM 72.3 °F 59.2 °F 63% 29.96 in 10.0 mi Calm Calm - N/A   Overcast
6:55 PM 71.8 °F 59.5 °F 65% 29.94 in 10.0 mi Calm Calm - N/A   Overcast
6:56 PM 71.8 °F 59.5 °F 65% 29.94 in 10.0 mi SSE 3.5 mph - N/A   Overcast
7:19 PM 71.8 °F 60.1 °F 67% 29.95 in 10.0 mi SSE 3.5 mph - N/A Rain Rain
7:37 PM 71.4 °F 59.9 °F 67% 29.94 in 10.0 mi SSE 4.6 mph - N/A   Overcast
7:55 PM 71.4 °F 60.1 °F 67% 29.94 in 10.0 mi South 4.6 mph - N/A   Overcast
8:15 PM 71.2 °F 60.4 °F 69% 29.94 in 10.0 mi South 3.5 mph - N/A   Overcast
8:35 PM 70.7 °F 60.4 °F 70% 29.94 in 10.0 mi Calm Calm - N/A   Overcast
9:17 PM 70.9 °F 60.1 °F 69% 29.95 in 10.0 mi SW 10.4 mph 20.7 mph N/A   Drizzle
9:35 PM 68.5 °F 61.3 °F 78% 29.96 in 10.0 mi WSW 8.1 mph - N/A   Drizzle
9:55 PM 68.0 °F 61.7 °F 80% 29.96 in 10.0 mi WSW 9.2 mph - N/A   Overcast
10:15 PM 67.5 °F 62.2 °F 83% 29.98 in 10.0 mi WSW 8.1 mph - N/A   Overcast
10:38 PM 57.4 °F 55.4 °F 93% 30.01 in 7.0 mi NW 15.0 mph 26.5 mph N/A Rain Rain
10:57 PM 52.9 °F 51.1 °F 94% 30.03 in 5.0 mi NW 17.3 mph 24.2 mph N/A Rain Light Rain
11:15 PM 51.8 °F 50.4 °F 95% 30.04 in 7.0 mi NW 12.7 mph 16.1 mph N/A Rain Rain
11:35 PM 49.6 °F 47.8 °F 94% 30.05 in 4.0 mi WNW 13.8 mph 24.2 mph N/A   Drizzle
11:55 PM 48.4 °F 46.8 °F 94% 30.06 in 5.0 mi NW 10.4 mph 17.3 mph 0.02 in Rain Rain